Zurück zum Katalog

CBERS 1 DEB

AktivSSO
NORAD 30783·DEBRIS·🇧🇷 Brazil🇨🇳 China

Gestartet Oct 14, 1999 von Taiyuan Satellite Launch Center

Loading…

Nächste Überflüge (nächste 24 Stunden)

TLE

AktuellSource: Space-Track

Epoche: Sep 14, 2026, 03:38 UTC

1 30783U 99057NS  26257.15148396  .00003205  00000-0  77325-3 0  9997
2 30783  98.2893  31.3023 0034909 290.1608 245.4963 14.53500937 23875

Verfolge CBERS 1 DEB in Echtzeit mit AllMySat

Download on the App Store